contact:dominique.lefevre@mio.osupytheas.fr, maurice.libes@osupytheas.fr, didier.mallarino@osupytheas.fr
Project:EMSO http://www.emso-fr.org/EMSO-France
Depth: 2436.0 m
Title:EMSO Ligure Ouest : Data MII capteur MICROCAT
DateTime_Computer,Latitude,Longitude,Temperature,Conductivity,Pressure,DateTime_Instrument
DateTime_Computer,Latitude,Longitude,degC,S m-1,dbar,DateTime_Instrument
2019-11-09T00:01:37Z,42.805,6.029,13.2963,4.59956,2469.923,2019-11-09T02:02:05Z
2019-11-09T00:04:41Z,42.805,6.029,13.2958,4.59956,2469.914,2019-11-09T02:05:08Z
2019-11-09T00:07:44Z,42.805,6.029,13.2958,4.59955,2469.923,2019-11-09T02:08:11Z
2019-11-09T00:10:47Z,42.805,6.029,13.2955,4.59954,2469.914,2019-11-09T02:11:14Z
2019-11-09T00:13:50Z,42.805,6.029,13.2958,4.59955,2469.923,2019-11-09T02:14:18Z
2019-11-09T00:16:54Z,42.805,6.029,13.2958,4.59955,2469.9,2019-11-09T02:17:21Z
2019-11-09T00:19:57Z,42.805,6.029,13.2957,4.59956,2469.876,2019-11-09T02:20:24Z
2019-11-09T00:23:00Z,42.805,6.029,13.2957,4.59954,2469.923,2019-11-09T02:23:27Z
2019-11-09T00:26:03Z,42.805,6.029,13.2959,4.59955,2469.923,2019-11-09T02:26:31Z
2019-11-09T00:29:07Z,42.805,6.029,13.2960,4.59957,2469.9,2019-11-09T02:29:34Z
2019-11-09T00:32:10Z,42.805,6.029,13.2958,4.59955,2469.9,2019-11-09T02:32:37Z
2019-11-09T00:35:13Z,42.805,6.029,13.2958,4.59955,2469.9,2019-11-09T02:35:40Z
2019-11-09T00:38:16Z,42.805,6.029,13.2956,4.59956,2469.923,2019-11-09T02:38:44Z
2019-11-09T00:41:19Z,42.805,6.029,13.2953,4.59954,2469.914,2019-11-09T02:41:47Z
2019-11-09T00:44:23Z,42.805,6.029,13.2959,4.59955,2469.914,2019-11-09T02:44:50Z
2019-11-09T00:47:26Z,42.805,6.029,13.2958,4.59955,2469.937,2019-11-09T02:47:53Z
2019-11-09T00:50:29Z,42.805,6.029,13.2954,4.59954,2469.937,2019-11-09T02:50:57Z
2019-11-09T00:53:33Z,42.805,6.029,13.2958,4.59955,2469.876,2019-11-09T02:54:00Z
2019-11-09T00:56:36Z,42.805,6.029,13.2958,4.59955,2469.96,2019-11-09T02:57:03Z
2019-11-09T00:59:39Z,42.805,6.029,13.2959,4.59955,2469.937,2019-11-09T03:00:06Z
2019-11-09T01:02:42Z,42.805,6.029,13.2953,4.59956,2469.876,2019-11-09T03:03:09Z
2019-11-09T01:05:45Z,42.805,6.029,13.2957,4.59955,2469.9,2019-11-09T03:06:13Z
2019-11-09T01:08:49Z,42.805,6.029,13.2961,4.59956,2469.89,2019-11-09T03:09:16Z
2019-11-09T01:11:52Z,42.805,6.029,13.2958,4.59955,2469.9,2019-11-09T03:12:19Z
2019-11-09T01:14:55Z,42.805,6.029,13.2957,4.59956,2469.9,2019-11-09T03:15:22Z
2019-11-09T01:17:58Z,42.805,6.029,13.2955,4.59958,2469.9,2019-11-09T03:18:26Z
2019-11-09T01:21:02Z,42.805,6.029,13.2957,4.59959,2469.9,2019-11-09T03:21:29Z
2019-11-09T01:24:05Z,42.805,6.029,13.2957,4.59954,2469.9,2019-11-09T03:24:32Z
2019-11-09T01:27:08Z,42.805,6.029,13.2958,4.59956,2469.923,2019-11-09T03:27:35Z
2019-11-09T01:30:11Z,42.805,6.029,13.2959,4.59961,2469.923,2019-11-09T03:30:39Z
2019-11-09T01:33:15Z,42.805,6.029,13.2957,4.59957,2469.914,2019-11-09T03:33:42Z
2019-11-09T01:36:18Z,42.805,6.029,13.2957,4.59956,2469.96,2019-11-09T03:36:45Z
2019-11-09T01:39:21Z,42.805,6.029,13.2957,4.59956,2469.947,2019-11-09T03:39:48Z
2019-11-09T01:42:24Z,42.805,6.029,13.2957,4.59957,2469.96,2019-11-09T03:42:52Z
2019-11-09T01:45:27Z,42.805,6.029,13.2957,4.59956,2469.937,2019-11-09T03:45:55Z
2019-11-09T01:48:31Z,42.805,6.029,13.2957,4.59957,2469.947,2019-11-09T03:48:58Z
2019-11-09T01:51:34Z,42.805,6.029,13.2958,4.59956,2469.937,2019-11-09T03:52:01Z
2019-11-09T01:54:37Z,42.805,6.029,13.2959,4.59957,2469.923,2019-11-09T03:55:04Z
2019-11-09T01:57:41Z,42.805,6.029,13.2958,4.59956,2469.937,2019-11-09T03:58:08Z
2019-11-09T02:00:44Z,42.805,6.029,13.2953,4.59955,2469.96,2019-11-09T04:01:11Z
2019-11-09T02:03:47Z,42.805,6.029,13.2957,4.59956,2469.984,2019-11-09T04:04:14Z
2019-11-09T02:06:50Z,42.805,6.029,13.2958,4.59955,2469.923,2019-11-09T04:07:17Z
2019-11-09T02:09:53Z,42.805,6.029,13.2957,4.59958,2469.947,2019-11-09T04:10:21Z
2019-11-09T02:12:57Z,42.805,6.029,13.2957,4.59961,2469.947,2019-11-09T04:13:24Z
2019-11-09T02:16:00Z,42.805,6.029,13.2956,4.59956,2469.97,2019-11-09T04:16:27Z
2019-11-09T02:19:03Z,42.805,6.029,13.2959,4.59956,2469.947,2019-11-09T04:19:30Z
2019-11-09T02:22:06Z,42.805,6.029,13.2955,4.59955,2469.937,2019-11-09T04:22:33Z
2019-11-09T02:25:09Z,42.805,6.029,13.2958,4.59956,2469.923,2019-11-09T04:25:37Z
2019-11-09T02:28:13Z,42.805,6.029,13.2958,4.59956,2469.96,2019-11-09T04:28:40Z
2019-11-09T02:31:16Z,42.805,6.029,13.2958,4.59956,2469.96,2019-11-09T04:31:43Z
2019-11-09T02:34:19Z,42.805,6.029,13.2958,4.59957,2469.984,2019-11-09T04:34:46Z
2019-11-09T02:37:22Z,42.805,6.029,13.2955,4.59956,2469.937,2019-11-09T04:37:50Z
2019-11-09T02:40:26Z,42.805,6.029,13.2955,4.59956,2469.97,2019-11-09T04:40:53Z
2019-11-09T02:43:29Z,42.805,6.029,13.2958,4.59963,2469.984,2019-11-09T04:43:56Z
2019-11-09T02:46:32Z,42.805,6.029,13.2958,4.59956,2469.947,2019-11-09T04:46:59Z
2019-11-09T02:49:35Z,42.805,6.029,13.2959,4.59956,2469.97,2019-11-09T04:50:03Z
2019-11-09T02:52:39Z,42.805,6.029,13.2956,4.59956,2469.96,2019-11-09T04:53:06Z
2019-11-09T02:55:42Z,42.805,6.029,13.2957,4.59956,2470.007,2019-11-09T04:56:09Z
2019-11-09T02:58:45Z,42.805,6.029,13.2957,4.59957,2469.984,2019-11-09T04:59:12Z
2019-11-09T03:01:48Z,42.805,6.029,13.2957,4.59956,2469.984,2019-11-09T05:02:15Z
2019-11-09T03:04:51Z,42.805,6.029,13.2957,4.59956,2469.97,2019-11-09T05:05:19Z
2019-11-09T03:07:55Z,42.805,6.029,13.2957,4.59956,2469.993,2019-11-09T05:08:22Z
2019-11-09T03:10:58Z,42.805,6.029,13.2955,4.59956,2469.993,2019-11-09T05:11:25Z
2019-11-09T03:14:01Z,42.805,6.029,13.2957,4.59956,2469.993,2019-11-09T05:14:28Z
2019-11-09T03:17:04Z,42.805,6.029,13.2957,4.59955,2469.984,2019-11-09T05:17:32Z
2019-11-09T03:20:08Z,42.805,6.029,13.2958,4.59957,2470.007,2019-11-09T05:20:35Z
2019-11-09T03:23:11Z,42.805,6.029,13.2961,4.59956,2469.993,2019-11-09T05:23:38Z
2019-11-09T03:26:14Z,42.805,6.029,13.2956,4.59957,2470.007,2019-11-09T05:26:41Z
2019-11-09T03:29:17Z,42.805,6.029,13.2958,4.59956,2469.993,2019-11-09T05:29:45Z
2019-11-09T03:32:21Z,42.805,6.029,13.2964,4.59956,2470.03,2019-11-09T05:32:48Z
2019-11-09T03:35:24Z,42.805,6.029,13.2958,4.59958,2470.03,2019-11-09T05:35:51Z
2019-11-09T03:38:27Z,42.805,6.029,13.2958,4.59956,2470.017,2019-11-09T05:38:54Z
2019-11-09T03:41:30Z,42.805,6.029,13.2958,4.59955,2470.03,2019-11-09T05:41:58Z
2019-11-09T03:44:34Z,42.805,6.029,13.2954,4.59956,2470.03,2019-11-09T05:45:01Z
2019-11-09T03:47:37Z,42.805,6.029,13.2958,4.59958,2470.017,2019-11-09T05:48:04Z
2019-11-09T03:50:40Z,42.805,6.029,13.2955,4.59957,2469.97,2019-11-09T05:51:07Z
2019-11-09T03:53:43Z,42.805,6.029,13.2957,4.59957,2470.017,2019-11-09T05:54:11Z
2019-11-09T03:56:47Z,42.805,6.029,13.2956,4.59962,2470.03,2019-11-09T05:57:14Z
2019-11-09T03:59:50Z,42.805,6.029,13.2958,4.59966,2469.97,2019-11-09T06:00:17Z
2019-11-09T04:02:53Z,42.805,6.029,13.2959,4.59957,2470.04,2019-11-09T06:03:21Z
2019-11-09T04:05:57Z,42.805,6.029,13.2953,4.59957,2470.04,2019-11-09T06:06:24Z
2019-11-09T04:09:00Z,42.805,6.029,13.2958,4.59958,2470.017,2019-11-09T06:09:27Z
2019-11-09T04:12:03Z,42.805,6.029,13.2957,4.59956,2470.03,2019-11-09T06:12:30Z
2019-11-09T04:15:06Z,42.805,6.029,13.2958,4.59956,2470.003,2019-11-09T06:15:34Z
2019-11-09T04:18:10Z,42.805,6.029,13.2961,4.59958,2470.04,2019-11-09T06:18:37Z
2019-11-09T04:21:13Z,42.805,6.029,13.2960,4.59958,2470.04,2019-11-09T06:21:40Z
2019-11-09T04:24:16Z,42.805,6.029,13.2957,4.59966,2470.04,2019-11-09T06:24:43Z
2019-11-09T04:27:19Z,42.805,6.029,13.2957,4.59956,2470.03,2019-11-09T06:27:47Z
2019-11-09T04:30:22Z,42.805,6.029,13.2957,4.59956,2470.017,2019-11-09T06:30:50Z
2019-11-09T04:33:26Z,42.805,6.029,13.2958,4.59956,2470.017,2019-11-09T06:33:53Z
2019-11-09T04:36:29Z,42.805,6.029,13.2961,4.59957,2469.97,2019-11-09T06:36:56Z
2019-11-09T04:39:32Z,42.805,6.029,13.2956,4.59956,2470.017,2019-11-09T06:39:59Z
2019-11-09T04:42:35Z,42.805,6.029,13.2956,4.59956,2470.017,2019-11-09T06:43:03Z
2019-11-09T04:45:38Z,42.805,6.029,13.2957,4.59956,2470.017,2019-11-09T06:46:06Z
2019-11-09T04:48:42Z,42.805,6.029,13.2960,4.59956,2470.017,2019-11-09T06:49:09Z
2019-11-09T04:51:45Z,42.805,6.029,13.2958,4.59958,2470.03,2019-11-09T06:52:12Z
2019-11-09T04:54:48Z,42.805,6.029,13.2962,4.59958,2470.053,2019-11-09T06:55:15Z
2019-11-09T04:57:51Z,42.805,6.029,13.2955,4.59960,2470.04,2019-11-09T06:58:19Z
2019-11-09T05:00:54Z,42.805,6.029,13.2958,4.59960,2470.017,2019-11-09T07:01:22Z
2019-11-09T05:03:58Z,42.805,6.029,13.2959,4.59958,2470.04,2019-11-09T07:04:25Z
2019-11-09T05:07:01Z,42.805,6.029,13.2960,4.59958,2470.053,2019-11-09T07:07:28Z
2019-11-09T05:10:04Z,42.805,6.029,13.2956,4.59963,2470.017,2019-11-09T07:10:31Z
2019-11-09T05:13:07Z,42.805,6.029,13.2964,4.59958,2470.017,2019-11-09T07:13:35Z
2019-11-09T05:16:11Z,42.805,6.029,13.2960,4.59963,2470.077,2019-11-09T07:16:38Z
2019-11-09T05:19:14Z,42.805,6.029,13.2958,4.59958,2470.04,2019-11-09T07:19:41Z
2019-11-09T05:22:17Z,42.805,6.029,13.2957,4.59958,2470.053,2019-11-09T07:22:44Z
2019-11-09T05:25:20Z,42.805,6.029,13.2958,4.59959,2470.053,2019-11-09T07:25:48Z
2019-11-09T05:28:23Z,42.805,6.029,13.2964,4.59957,2470.053,2019-11-09T07:28:51Z
2019-11-09T05:31:27Z,42.805,6.029,13.2957,4.59958,2470.03,2019-11-09T07:31:54Z
2019-11-09T05:34:30Z,42.805,6.029,13.2958,4.59957,2470.017,2019-11-09T07:34:57Z
2019-11-09T05:37:33Z,42.805,6.029,13.2961,4.59958,2470.04,2019-11-09T07:38:01Z
2019-11-09T05:40:37Z,42.805,6.029,13.2958,4.59958,2470.04,2019-11-09T07:41:04Z
2019-11-09T05:43:40Z,42.805,6.029,13.2959,4.59961,2470.063,2019-11-09T07:44:07Z
2019-11-09T05:46:43Z,42.805,6.029,13.2958,4.59963,2470.04,2019-11-09T07:47:10Z
2019-11-09T05:49:46Z,42.805,6.029,13.2956,4.59983,2470.017,2019-11-09T07:50:13Z
2019-11-09T05:52:49Z,42.805,6.029,13.2958,4.59967,2470.04,2019-11-09T07:53:17Z
2019-11-09T05:55:53Z,42.805,6.029,13.2961,4.59964,2470.03,2019-11-09T07:56:20Z
2019-11-09T05:58:56Z,42.805,6.029,13.2957,4.59968,2470.077,2019-11-09T07:59:23Z
2019-11-09T06:01:59Z,42.805,6.029,13.2957,4.59961,2470.063,2019-11-09T08:02:27Z
2019-11-09T06:05:02Z,42.805,6.029,13.2954,4.59961,2470.053,2019-11-09T08:05:30Z
2019-11-09T06:08:06Z,42.805,6.029,13.2953,4.59963,2470.04,2019-11-09T08:08:33Z
2019-11-09T06:11:09Z,42.805,6.029,13.2957,4.59962,2470.003,2019-11-09T08:11:36Z
2019-11-09T06:14:12Z,42.805,6.029,13.2957,4.59958,2470.017,2019-11-09T08:14:39Z
2019-11-09T06:17:15Z,42.805,6.029,13.2958,4.59961,2470.04,2019-11-09T08:17:42Z
2019-11-09T06:20:18Z,42.805,6.029,13.2961,4.59961,2470.053,2019-11-09T08:20:46Z
2019-11-09T06:23:22Z,42.805,6.029,13.2959,4.59961,2470.007,2019-11-09T08:23:49Z
2019-11-09T06:26:25Z,42.805,6.029,13.2957,4.59962,2470.017,2019-11-09T08:26:52Z
2019-11-09T06:29:28Z,42.805,6.029,13.2953,4.59963,2470.053,2019-11-09T08:29:55Z
2019-11-09T06:32:31Z,42.805,6.029,13.2953,4.59958,2470.04,2019-11-09T08:32:59Z
2019-11-09T06:35:34Z,42.805,6.029,13.2957,4.59961,2470.053,2019-11-09T08:36:02Z
2019-11-09T06:38:38Z,42.805,6.029,13.2958,4.59964,2470.017,2019-11-09T08:39:05Z
2019-11-09T06:41:41Z,42.805,6.029,13.2958,4.59960,2469.97,2019-11-09T08:42:08Z
2019-11-09T06:44:44Z,42.805,6.029,13.2961,4.59960,2470.04,2019-11-09T08:45:11Z
2019-11-09T06:47:47Z,42.805,6.029,13.2957,4.59961,2470.017,2019-11-09T08:48:15Z
2019-11-09T06:50:50Z,42.805,6.029,13.2955,4.59960,2470.077,2019-11-09T08:51:18Z
2019-11-09T06:53:54Z,42.805,6.029,13.2959,4.59962,2470.017,2019-11-09T08:54:21Z
2019-11-09T06:56:57Z,42.805,6.029,13.2962,4.59961,2469.97,2019-11-09T08:57:24Z
2019-11-09T07:00:00Z,42.805,6.029,13.2956,4.59961,2470.017,2019-11-09T09:00:27Z
2019-11-09T07:03:03Z,42.805,6.029,13.2953,4.59961,2470.03,2019-11-09T09:03:31Z
2019-11-09T07:06:07Z,42.805,6.029,13.2959,4.59959,2470.04,2019-11-09T09:06:34Z
2019-11-09T07:09:10Z,42.805,6.029,13.2955,4.59959,2469.993,2019-11-09T09:09:37Z
2019-11-09T07:12:13Z,42.805,6.029,13.2956,4.59960,2470.03,2019-11-09T09:12:40Z
2019-11-09T07:15:16Z,42.805,6.029,13.2953,4.59958,2470.007,2019-11-09T09:15:44Z
2019-11-09T07:18:20Z,42.805,6.029,13.2961,4.59958,2470.053,2019-11-09T09:18:47Z
2019-11-09T07:21:23Z,42.805,6.029,13.2954,4.59960,2470.053,2019-11-09T09:21:50Z
2019-11-09T07:24:26Z,42.805,6.029,13.2961,4.59959,2470.017,2019-11-09T09:24:53Z
2019-11-09T07:27:29Z,42.805,6.029,13.2956,4.59958,2469.993,2019-11-09T09:27:57Z
2019-11-09T07:30:33Z,42.805,6.029,13.2957,4.59959,2470.007,2019-11-09T09:31:00Z
2019-11-09T07:33:36Z,42.805,6.029,13.2957,4.59958,2470.017,2019-11-09T09:34:03Z
2019-11-09T07:36:39Z,42.805,6.029,13.2954,4.59958,2469.97,2019-11-09T09:37:06Z
2019-11-09T07:39:42Z,42.805,6.029,13.2956,4.59958,2470.03,2019-11-09T09:40:10Z
2019-11-09T07:42:46Z,42.805,6.029,13.2953,4.59958,2469.993,2019-11-09T09:43:13Z
2019-11-09T07:45:49Z,42.805,6.029,13.2951,4.59957,2469.993,2019-11-09T09:46:16Z
2019-11-09T07:48:52Z,42.805,6.029,13.2958,4.59958,2469.993,2019-11-09T09:49:19Z
2019-11-09T07:51:55Z,42.805,6.029,13.2954,4.59958,2469.993,2019-11-09T09:52:22Z
2019-11-09T07:54:58Z,42.805,6.029,13.2957,4.59959,2470.03,2019-11-09T09:55:26Z
2019-11-09T07:58:02Z,42.805,6.029,13.2958,4.59957,2470.007,2019-11-09T09:58:29Z
2019-11-09T08:01:05Z,42.805,6.029,13.2957,4.59957,2469.993,2019-11-09T10:01:32Z
2019-11-09T08:04:08Z,42.805,6.029,13.2957,4.59957,2470.053,2019-11-09T10:04:36Z
2019-11-09T08:07:12Z,42.805,6.029,13.2959,4.59959,2470.007,2019-11-09T10:07:39Z
2019-11-09T08:10:15Z,42.805,6.029,13.2958,4.59960,2469.97,2019-11-09T10:10:42Z
2019-11-09T08:13:18Z,42.805,6.029,13.2957,4.59959,2469.993,2019-11-09T10:13:45Z
2019-11-09T08:16:21Z,42.805,6.029,13.2958,4.59960,2469.993,2019-11-09T10:16:48Z
2019-11-09T08:19:24Z,42.805,6.029,13.2960,4.59958,2469.993,2019-11-09T10:19:52Z
2019-11-09T08:22:28Z,42.805,6.029,13.2958,4.59959,2469.993,2019-11-09T10:22:55Z
2019-11-09T08:25:31Z,42.805,6.029,13.2957,4.59957,2469.984,2019-11-09T10:25:58Z
2019-11-09T08:28:34Z,42.805,6.029,13.2957,4.59957,2469.947,2019-11-09T10:29:01Z
2019-11-09T08:31:37Z,42.805,6.029,13.2956,4.59958,2470.017,2019-11-09T10:32:05Z
2019-11-09T08:34:41Z,42.805,6.029,13.2957,4.59956,2469.97,2019-11-09T10:35:08Z
2019-11-09T08:37:44Z,42.805,6.029,13.2959,4.59958,2469.97,2019-11-09T10:38:11Z
2019-11-09T08:40:47Z,42.805,6.029,13.2958,4.59957,2469.947,2019-11-09T10:41:14Z
2019-11-09T08:43:50Z,42.805,6.029,13.2955,4.59958,2469.984,2019-11-09T10:44:18Z
2019-11-09T08:46:54Z,42.805,6.029,13.2955,4.59957,2470.007,2019-11-09T10:47:21Z
2019-11-09T08:49:57Z,42.805,6.029,13.2957,4.59956,2469.97,2019-11-09T10:50:24Z
2019-11-09T08:53:00Z,42.805,6.029,13.2959,4.59956,2469.97,2019-11-09T10:53:27Z
2019-11-09T08:56:03Z,42.805,6.029,13.2959,4.59956,2469.97,2019-11-09T10:56:31Z
2019-11-09T08:59:06Z,42.805,6.029,13.2959,4.59956,2469.984,2019-11-09T10:59:34Z
2019-11-09T09:02:10Z,42.805,6.029,13.2954,4.59956,2469.984,2019-11-09T11:02:37Z
2019-11-09T09:05:13Z,42.805,6.029,13.2960,4.59958,2469.947,2019-11-09T11:05:40Z
2019-11-09T09:08:16Z,42.805,6.029,13.2956,4.59958,2469.937,2019-11-09T11:08:43Z
2019-11-09T09:11:19Z,42.805,6.029,13.2957,4.59958,2469.96,2019-11-09T11:11:47Z
2019-11-09T09:14:22Z,42.805,6.029,13.2957,4.59957,2469.993,2019-11-09T11:14:50Z
2019-11-09T09:17:26Z,42.805,6.029,13.2952,4.59957,2469.984,2019-11-09T11:17:53Z
2019-11-09T09:20:29Z,42.805,6.029,13.2956,4.59956,2469.97,2019-11-09T11:20:56Z
2019-11-09T09:23:32Z,42.805,6.029,13.2956,4.59956,2469.984,2019-11-09T11:23:59Z
2019-11-09T09:26:35Z,42.805,6.029,13.2957,4.59958,2470.017,2019-11-09T11:27:03Z
2019-11-09T09:29:39Z,42.805,6.029,13.2955,4.59958,2469.947,2019-11-09T11:30:06Z
2019-11-09T09:32:42Z,42.805,6.029,13.2957,4.59957,2469.993,2019-11-09T11:33:09Z
2019-11-09T09:35:45Z,42.805,6.029,13.2958,4.59957,2469.97,2019-11-09T11:36:12Z
2019-11-09T09:38:48Z,42.805,6.029,13.2955,4.59958,2469.984,2019-11-09T11:39:16Z
2019-11-09T09:41:51Z,42.805,6.029,13.2957,4.59956,2469.96,2019-11-09T11:42:19Z
2019-11-09T09:44:55Z,42.805,6.029,13.2958,4.59958,2469.97,2019-11-09T11:45:22Z
2019-11-09T09:47:58Z,42.805,6.029,13.2953,4.59956,2469.96,2019-11-09T11:48:25Z
2019-11-09T09:51:01Z,42.805,6.029,13.2957,4.59957,2469.984,2019-11-09T11:51:29Z
2019-11-09T09:54:04Z,42.805,6.029,13.2958,4.59956,2469.96,2019-11-09T11:54:32Z
2019-11-09T09:57:08Z,42.805,6.029,13.2959,4.59956,2469.947,2019-11-09T11:57:35Z
2019-11-09T10:00:11Z,42.805,6.029,13.2957,4.59956,2469.947,2019-11-09T12:00:38Z
2019-11-09T10:03:14Z,42.805,6.029,13.2957,4.59956,2469.96,2019-11-09T12:03:41Z
2019-11-09T10:06:17Z,42.805,6.029,13.2957,4.59956,2469.947,2019-11-09T12:06:45Z
2019-11-09T10:09:21Z,42.805,6.029,13.2958,4.59956,2469.97,2019-11-09T12:09:48Z
2019-11-09T10:12:24Z,42.805,6.029,13.2957,4.59956,2469.947,2019-11-09T12:12:51Z
2019-11-09T10:15:27Z,42.805,6.029,13.2957,4.59956,2469.947,2019-11-09T12:15:54Z
2019-11-09T10:18:30Z,42.805,6.029,13.2959,4.59956,2469.96,2019-11-09T12:18:58Z
2019-11-09T10:21:34Z,42.805,6.029,13.2959,4.59956,2469.947,2019-11-09T12:22:01Z
2019-11-09T10:24:37Z,42.805,6.029,13.2958,4.59956,2469.933,2019-11-09T12:25:04Z
2019-11-09T10:27:40Z,42.805,6.029,13.2953,4.59956,2469.923,2019-11-09T12:28:07Z
2019-11-09T10:30:43Z,42.805,6.029,13.2958,4.59956,2469.923,2019-11-09T12:31:11Z
2019-11-09T10:33:47Z,42.805,6.029,13.2958,4.59955,2469.947,2019-11-09T12:34:14Z
2019-11-09T10:36:50Z,42.805,6.029,13.2958,4.59956,2469.947,2019-11-09T12:37:17Z
2019-11-09T10:39:53Z,42.805,6.029,13.2957,4.59958,2469.97,2019-11-09T12:40:20Z
2019-11-09T10:42:56Z,42.805,6.029,13.2957,4.59958,2469.947,2019-11-09T12:43:23Z
2019-11-09T10:45:59Z,42.805,6.029,13.2959,4.59959,2469.96,2019-11-09T12:46:27Z
2019-11-09T10:49:03Z,42.805,6.029,13.2957,4.59957,2469.97,2019-11-09T12:49:30Z
2019-11-09T10:52:06Z,42.805,6.029,13.2957,4.59957,2469.947,2019-11-09T12:52:33Z
2019-11-09T10:55:09Z,42.805,6.029,13.2960,4.59957,2469.923,2019-11-09T12:55:36Z
2019-11-09T10:58:12Z,42.805,6.029,13.2958,4.59957,2469.923,2019-11-09T12:58:40Z
2019-11-09T11:01:15Z,42.805,6.029,13.2957,4.59958,2469.937,2019-11-09T13:01:43Z
2019-11-09T11:04:19Z,42.805,6.029,13.2957,4.59956,2469.984,2019-11-09T13:04:46Z
2019-11-09T11:07:22Z,42.805,6.029,13.2959,4.59957,2469.97,2019-11-09T13:07:49Z
2019-11-09T11:10:25Z,42.805,6.029,13.2960,4.59956,2469.947,2019-11-09T13:10:52Z
2019-11-09T11:13:28Z,42.805,6.029,13.2959,4.59956,2469.923,2019-11-09T13:13:56Z
2019-11-09T11:16:32Z,42.805,6.029,13.2958,4.59956,2469.923,2019-11-09T13:16:59Z
2019-11-09T11:19:35Z,42.805,6.029,13.2961,4.59956,2469.947,2019-11-09T13:20:02Z
2019-11-09T11:22:38Z,42.805,6.029,13.2956,4.59956,2469.97,2019-11-09T13:23:05Z
2019-11-09T11:25:41Z,42.805,6.029,13.2957,4.59956,2469.96,2019-11-09T13:26:09Z
2019-11-09T11:28:44Z,42.805,6.029,13.2958,4.59956,2469.937,2019-11-09T13:29:12Z
2019-11-09T11:31:48Z,42.805,6.029,13.2957,4.59956,2469.947,2019-11-09T13:32:15Z
2019-11-09T11:34:51Z,42.805,6.029,13.2959,4.59956,2469.937,2019-11-09T13:35:18Z
2019-11-09T11:37:54Z,42.805,6.029,13.2959,4.59955,2469.937,2019-11-09T13:38:21Z
2019-11-09T11:40:58Z,42.805,6.029,13.2957,4.59956,2469.9,2019-11-09T13:41:25Z
2019-11-09T11:44:01Z,42.805,6.029,13.2958,4.59956,2469.876,2019-11-09T13:44:28Z
2019-11-09T11:47:04Z,42.805,6.029,13.2960,4.59956,2469.947,2019-11-09T13:47:31Z
2019-11-09T11:50:07Z,42.805,6.029,13.2960,4.59956,2469.9,2019-11-09T13:50:35Z
2019-11-09T11:53:11Z,42.805,6.029,13.2958,4.59956,2469.914,2019-11-09T13:53:38Z
2019-11-09T11:56:14Z,42.805,6.029,13.2958,4.59957,2469.96,2019-11-09T13:56:41Z
2019-11-09T11:59:17Z,42.805,6.029,13.2958,4.59956,2469.9,2019-11-09T13:59:44Z
2019-11-09T12:02:20Z,42.805,6.029,13.2961,4.59956,2469.923,2019-11-09T14:02:48Z
2019-11-09T12:05:24Z,42.805,6.029,13.2959,4.59956,2469.9,2019-11-09T14:05:51Z
2019-11-09T12:08:27Z,42.805,6.029,13.2959,4.59956,2469.923,2019-11-09T14:08:54Z
2019-11-09T12:11:30Z,42.805,6.029,13.2958,4.59957,2469.937,2019-11-09T14:11:57Z
2019-11-09T12:14:33Z,42.805,6.029,13.2957,4.59956,2469.923,2019-11-09T14:15:01Z
2019-11-09T12:17:37Z,42.805,6.029,13.2959,4.59956,2469.9,2019-11-09T14:18:04Z
2019-11-09T12:20:40Z,42.805,6.029,13.2961,4.59956,2469.876,2019-11-09T14:21:07Z
2019-11-09T12:23:43Z,42.805,6.029,13.2959,4.59956,2469.9,2019-11-09T14:24:10Z
2019-11-09T12:26:46Z,42.805,6.029,13.2957,4.59956,2469.923,2019-11-09T14:27:14Z
2019-11-09T12:29:50Z,42.805,6.029,13.2955,4.59956,2469.914,2019-11-09T14:30:17Z
2019-11-09T12:32:53Z,42.805,6.029,13.2958,4.59956,2469.947,2019-11-09T14:33:20Z
2019-11-09T12:35:56Z,42.805,6.029,13.2956,4.59955,2469.9,2019-11-09T14:36:23Z
2019-11-09T12:38:59Z,42.805,6.029,13.2959,4.59956,2469.947,2019-11-09T14:39:27Z
2019-11-09T12:42:03Z,42.805,6.029,13.2961,4.59956,2469.914,2019-11-09T14:42:30Z
2019-11-09T12:45:06Z,42.805,6.029,13.2957,4.59956,2469.937,2019-11-09T14:45:33Z
2019-11-09T12:48:09Z,42.805,6.029,13.2956,4.59956,2469.947,2019-11-09T14:48:36Z
2019-11-09T12:51:12Z,42.805,6.029,13.2960,4.59956,2469.9,2019-11-09T14:51:40Z
2019-11-09T12:54:15Z,42.805,6.029,13.2959,4.59956,2469.937,2019-11-09T14:54:43Z
2019-11-09T12:57:19Z,42.805,6.029,13.2957,4.59956,2469.9,2019-11-09T14:57:46Z
2019-11-09T13:00:22Z,42.805,6.029,13.2959,4.59956,2469.9,2019-11-09T15:00:49Z
2019-11-09T13:03:25Z,42.805,6.029,13.2958,4.59955,2469.947,2019-11-09T15:03:52Z
2019-11-09T13:06:28Z,42.805,6.029,13.2957,4.59956,2469.923,2019-11-09T15:06:56Z
2019-11-09T13:09:31Z,42.805,6.029,13.2958,4.59955,2469.947,2019-11-09T15:09:59Z
2019-11-09T13:12:35Z,42.805,6.029,13.2958,4.59955,2469.923,2019-11-09T15:13:02Z
2019-11-09T13:15:38Z,42.805,6.029,13.2957,4.59955,2469.947,2019-11-09T15:16:05Z
2019-11-09T13:18:41Z,42.805,6.029,13.2959,4.59956,2469.923,2019-11-09T15:19:09Z
2019-11-09T13:21:45Z,42.805,6.029,13.2952,4.59955,2469.96,2019-11-09T15:22:12Z
2019-11-09T13:24:48Z,42.805,6.029,13.2956,4.59956,2469.923,2019-11-09T15:25:15Z
2019-11-09T13:27:51Z,42.805,6.029,13.2958,4.59956,2469.923,2019-11-09T15:28:18Z
2019-11-09T13:30:54Z,42.805,6.029,13.2961,4.59956,2469.937,2019-11-09T15:31:22Z
2019-11-09T13:33:58Z,42.805,6.029,13.2957,4.59956,2469.914,2019-11-09T15:34:25Z
2019-11-09T13:37:01Z,42.805,6.029,13.2959,4.59956,2469.923,2019-11-09T15:37:28Z
2019-11-09T13:40:04Z,42.805,6.029,13.2961,4.59957,2469.97,2019-11-09T15:40:31Z
2019-11-09T13:43:07Z,42.805,6.029,13.2957,4.59956,2469.97,2019-11-09T15:43:35Z
2019-11-09T13:46:10Z,42.805,6.029,13.2962,4.59956,2469.937,2019-11-09T15:46:38Z
2019-11-09T13:49:14Z,42.805,6.029,13.2958,4.59956,2469.96,2019-11-09T15:49:41Z
2019-11-09T13:52:17Z,42.805,6.029,13.2956,4.59956,2469.97,2019-11-09T15:52:44Z
2019-11-09T13:55:20Z,42.805,6.029,13.2961,4.59956,2469.947,2019-11-09T15:55:47Z
2019-11-09T13:58:23Z,42.805,6.029,13.2957,4.59956,2469.947,2019-11-09T15:58:51Z
2019-11-09T14:01:27Z,42.805,6.029,13.2957,4.59956,2469.97,2019-11-09T16:01:54Z
2019-11-09T14:04:30Z,42.805,6.029,13.2962,4.59956,2469.97,2019-11-09T16:04:57Z
2019-11-09T14:07:33Z,42.805,6.029,13.2959,4.59956,2469.97,2019-11-09T16:08:00Z
2019-11-09T14:10:36Z,42.805,6.029,13.2957,4.59956,2469.97,2019-11-09T16:11:04Z
2019-11-09T14:13:39Z,42.805,6.029,13.2955,4.59956,2469.993,2019-11-09T16:14:07Z
2019-11-09T14:16:43Z,42.805,6.029,13.2958,4.59955,2469.993,2019-11-09T16:17:10Z
2019-11-09T14:19:46Z,42.805,6.029,13.2957,4.59956,2469.97,2019-11-09T16:20:13Z
2019-11-09T14:22:49Z,42.805,6.029,13.2957,4.59956,2469.984,2019-11-09T16:23:16Z
2019-11-09T14:25:52Z,42.805,6.029,13.2958,4.59955,2470.007,2019-11-09T16:26:20Z
2019-11-09T14:28:56Z,42.805,6.029,13.2958,4.59955,2470.007,2019-11-09T16:29:23Z
2019-11-09T14:31:59Z,42.805,6.029,13.2957,4.59956,2469.97,2019-11-09T16:32:26Z
2019-11-09T14:35:02Z,42.805,6.029,13.2957,4.59957,2470.007,2019-11-09T16:35:29Z
2019-11-09T14:38:06Z,42.805,6.029,13.2958,4.59956,2469.97,2019-11-09T16:38:33Z
2019-11-09T14:41:09Z,42.805,6.029,13.2959,4.59958,2470.007,2019-11-09T16:41:36Z
2019-11-09T14:44:12Z,42.805,6.029,13.2961,4.59956,2469.993,2019-11-09T16:44:39Z
2019-11-09T14:47:15Z,42.805,6.029,13.2961,4.59956,2469.993,2019-11-09T16:47:43Z
2019-11-09T14:50:18Z,42.805,6.029,13.2958,4.59956,2470.007,2019-11-09T16:50:46Z
2019-11-09T14:53:22Z,42.805,6.029,13.2961,4.59956,2470.007,2019-11-09T16:53:49Z
2019-11-09T14:56:25Z,42.805,6.029,13.2959,4.59957,2470.007,2019-11-09T16:56:52Z
2019-11-09T14:59:28Z,42.805,6.029,13.2957,4.59956,2470.04,2019-11-09T16:59:56Z
2019-11-09T15:02:32Z,42.805,6.029,13.2960,4.59957,2470.053,2019-11-09T17:02:59Z